EN

Hourly Weather Amantea

Today, 27 January, Wednesday

Time Temperature Precipitation Wind Pressure Humidity
00:00 -1°C° 0 mm 6 mps 729 mmHg 71%
01:00 -1°C° 0 mm 6 mps 729 mmHg 71%
02:00 -1°C° 0 mm 6 mps 729 mmHg 71%
03:00 -1°C° 0 mm 6 mps 729 mmHg 70%
04:00 0°C° 0 mm 5 mps 729 mmHg 70%
05:00 0°C° 0 mm 5 mps 729 mmHg 70%
06:00 0°C° 0 mm 5 mps 729 mmHg 69%
07:00 0°C° 0 mm 5 mps 729 mmHg 69%
08:00 +1°C° 0 mm 5 mps 730 mmHg 61%
09:00 +3°C° 0 mm 5 mps 730 mmHg 54%
10:00 +6°C° 0 mm 5 mps 731 mmHg 46%
11:00 +6°C° 0 mm 5 mps 731 mmHg 45%
12:00 +6°C° 0 mm 5 mps 730 mmHg 44%
13:00 +7°C° 0 mm 5 mps 730 mmHg 43%
14:00 +6°C° 0 mm 4 mps 730 mmHg 45%
15:00 +6°C° 0 mm 4 mps 730 mmHg 48%
16:00 +5°C° 0 mm 3 mps 729 mmHg 51%
17:00 +4°C° 0 mm 3 mps 730 mmHg 55%
18:00 +4°C° 0 mm 2 mps 730 mmHg 59%
19:00 +3°C° 0 mm 2 mps 730 mmHg 63%
20:00 +3°C° 0 mm 2 mps 730 mmHg 61%
21:00 +4°C° 0 mm 1 mps 730 mmHg 59%
22:00 +4°C° 0 mm 1 mps 729 mmHg 57%
23:00 +4°C° 0 mm 1 mps 729 mmHg 56%

Tomorrow, 28 January, Thursday

Time Temperature Precipitation Wind Pressure Humidity
00:00 +5°C° 0 mm 1 mps 729 mmHg 56%
01:00 +5°C° 0 mm 1 mps 729 mmHg 56%
02:00 +5°C° 0 mm 1 mps 729 mmHg 59%
03:00 +4°C° 0 mm 1 mps 728 mmHg 62%
04:00 +4°C° 0 mm 1 mps 728 mmHg 65%
05:00 +4°C° 0 mm 1 mps 729 mmHg 66%
06:00 +4°C° 0 mm 1 mps 729 mmHg 67%
07:00 +3°C° 0 mm 1 mps 729 mmHg 67%
08:00 +5°C° 0 mm 1 mps 730 mmHg 61%
09:00 +7°C° 0 mm 1 mps 730 mmHg 55%
10:00 +9°C° 0 mm 1 mps 731 mmHg 49%
11:00 +9°C° 0 mm 1 mps 731 mmHg 49%
12:00 +10°C° 0 mm 1 mps 731 mmHg 50%
13:00 +9°C° 0 mm 2 mps 732 mmHg 50%
14:00 +9°C° 0 mm 2 mps 732 mmHg 55%
15:00 +8°C° 0 mm 2 mps 731 mmHg 59%
16:00 +9°C° 0 mm 1 mps 731 mmHg 64%
17:00 +6°C° 0 mm 2 mps 732 mmHg 69%
18:00 +5°C° 0 mm 2 mps 732 mmHg 75%
19:00 +4°C° 0 mm 2 mps 732 mmHg 80%
20:00 +4°C° 0 mm 2 mps 732 mmHg 82%
21:00 +5°C° 0 mm 1 mps 732 mmHg 84%
22:00 +6°C° 0 mm 1 mps 732 mmHg 85%
23:00 +4°C° 0 mm 2 mps 731 mmHg 86%

Day after tomorrow, 29 January, Friday

Time Temperature Precipitation Wind Pressure Humidity
00:00 +4°C° 0 mm 2 mps 731 mmHg 86%
01:00 +4°C° 0 mm 2 mps 731 mmHg 86%
02:00 +5°C° 0.3 mm 2 mps 730 mmHg 88%
03:00 +6°C° 0.3 mm 2 mps 729 mmHg 90%
04:00 +7°C° 0.3 mm 3 mps 729 mmHg 92%
05:00 +7°C° 0.5 mm 3 mps 729 mmHg 94%
06:00 +8°C° 0.5 mm 3 mps 729 mmHg 96%
07:00 +9°C° 0.5 mm 3 mps 729 mmHg 97%
08:00 +10°C° 0.1 mm 3 mps 729 mmHg 96%
09:00 +10°C° 0.1 mm 3 mps 729 mmHg 95%
10:00 +11°C° 0.1 mm 4 mps 729 mmHg 94%
11:00 +11°C° 0.2 mm 4 mps 729 mmHg 93%
12:00 +12°C° 0.2 mm 4 mps 728 mmHg 93%
13:00 +12°C° 0.2 mm 5 mps 728 mmHg 92%
14:00 +12°C° 0.1 mm 5 mps 728 mmHg 93%
15:00 +12°C° 0.1 mm 5 mps 727 mmHg 94%
16:00 +10°C° 0.1 mm 6 mps 726 mmHg 95%
17:00 +10°C° 0.1 mm 6 mps 726 mmHg 96%
18:00 +10°C° 0.1 mm 6 mps 726 mmHg 96%
19:00 +10°C° 0.1 mm 6 mps 726 mmHg 97%
20:00 +11°C° 0.1 mm 6 mps 725 mmHg 97%
21:00 +11°C° 0.1 mm 6 mps 725 mmHg 97%
22:00 +11°C° 0.1 mm 6 mps 725 mmHg 96%
23:00 +11°C° 0.2 mm 7 mps 724 mmHg 96%

30 January, Saturday

Time Temperature Precipitation Wind Pressure Humidity
00:00 +11°C° 0.2 mm 8 mps 724 mmHg 96%
01:00 +11°C° 0.2 mm 8 mps 724 mmHg 96%
02:00 +11°C° 0.2 mm 8 mps 724 mmHg 94%
03:00 +10°C° 0.2 mm 7 mps 724 mmHg 93%
04:00 +10°C° 0.2 mm 6 mps 724 mmHg 92%
05:00 +10°C° 0.1 mm 6 mps 724 mmHg 92%
06:00 +10°C° 0.1 mm 6 mps 724 mmHg 92%
07:00 +9°C° 0.1 mm 6 mps 724 mmHg 92%
08:00 +10°C° 0 mm 6 mps 724 mmHg 89%
09:00 +10°C° 0 mm 6 mps 724 mmHg 86%
10:00 +11°C° 0 mm 6 mps 724 mmHg 83%
11:00 +11°C° 0 mm 6 mps 724 mmHg 79%
12:00 +13°C° 0 mm 5 mps 723 mmHg 75%
13:00 +13°C° 0 mm 5 mps 723 mmHg 71%
14:00 +13°C° 0 mm 5 mps 723 mmHg 77%
15:00 +12°C° 0 mm 4 mps 722 mmHg 83%
16:00 +12°C° 0 mm 4 mps 722 mmHg 88%
17:00 +11°C° 0 mm 3 mps 722 mmHg 90%
18:00 +11°C° 0 mm 3 mps 721 mmHg 92%
19:00 +10°C° 0 mm 2 mps 721 mmHg 94%
20:00 +11°C° 0 mm 3 mps 721 mmHg 91%
21:00 +11°C° 0 mm 4 mps 720 mmHg 87%
22:00 +12°C° 0 mm 4 mps 720 mmHg 84%
23:00 +12°C° 0.2 mm 4 mps 719 mmHg 83%

31 January, Sunday

Time Temperature Precipitation Wind Pressure Humidity
00:00 +12°C° 0.2 mm 4 mps 719 mmHg 82%
01:00 +12°C° 0.2 mm 4 mps 718 mmHg 82%
02:00 +12°C° 1.2 mm 5 mps 718 mmHg 86%
03:00 +10°C° 1.2 mm 7 mps 718 mmHg 90%
04:00 +10°C° 1.2 mm 9 mps 717 mmHg 94%
05:00 +10°C° 1.1 mm 9 mps 717 mmHg 93%
06:00 +8°C° 1.1 mm 9 mps 717 mmHg 91%
07:00 +9°C° 1.1 mm 8 mps 717 mmHg 89%
08:00 +9°C° 0.6 mm 8 mps 718 mmHg 88%
09:00 +9°C° 0.6 mm 8 mps 718 mmHg 86%
10:00 +9°C° 0.6 mm 7 mps 718 mmHg 84%
11:00 +9°C° 0.4 mm 7 mps 719 mmHg 85%
12:00 +9°C° 0.4 mm 7 mps 719 mmHg 85%
13:00 +9°C° 0.4 mm 7 mps 719 mmHg 85%
14:00 +9°C° 0.6 mm 7 mps 719 mmHg 87%
15:00 +9°C° 0.6 mm 7 mps 719 mmHg 88%
16:00 +9°C° 0.6 mm 7 mps 719 mmHg 90%
17:00 +9°C° 0.7 mm 7 mps 720 mmHg 91%
18:00 +8°C° 0.7 mm 6 mps 720 mmHg 93%
19:00 +8°C° 0.7 mm 6 mps 721 mmHg 94%
20:00 +8°C° 0.8 mm 5 mps 721 mmHg 94%
21:00 +8°C° 0.8 mm 4 mps 722 mmHg 95%
22:00 +9°C° 0.8 mm 2 mps 722 mmHg 95%
23:00 +9°C° 0.3 mm 2 mps 722 mmHg 94%

1 February, Monday

Time Temperature Precipitation Wind Pressure Humidity
00:00 +9°C° 0.3 mm 2 mps 722 mmHg 93%
01:00 +9°C° 0.3 mm 2 mps 723 mmHg 92%
02:00 +9°C° 0.2 mm 2 mps 723 mmHg 92%
03:00 +9°C° 0.2 mm 2 mps 723 mmHg 93%
04:00 +9°C° 0.2 mm 2 mps 723 mmHg 93%
05:00 +8°C° 0.2 mm 2 mps 723 mmHg 94%
06:00 +8°C° 0.2 mm 2 mps 723 mmHg 95%
07:00 +8°C° 0.2 mm 2 mps 724 mmHg 95%
08:00 +9°C° 0.3 mm 2 mps 724 mmHg 93%
09:00 +9°C° 0.3 mm 2 mps 725 mmHg 91%
10:00 +10°C° 0.3 mm 2 mps 725 mmHg 89%
11:00 +10°C° 0.3 mm 2 mps 725 mmHg 87%
12:00 +11°C° 0.3 mm 3 mps 725 mmHg 85%
13:00 +11°C° 0.3 mm 3 mps 724 mmHg 83%
14:00 +12°C° 0.4 mm 2 mps 724 mmHg 84%
15:00 +12°C° 0.4 mm 2 mps 724 mmHg 85%
16:00 +10°C° 0.4 mm 2 mps 724 mmHg 86%
17:00 +10°C° 0.7 mm 2 mps 724 mmHg 88%
18:00 +9°C° 0.7 mm 2 mps 724 mmHg 91%
19:00 +8°C° 0.7 mm 2 mps 725 mmHg 93%
20:00 +8°C° 0.8 mm 2 mps 725 mmHg 94%
21:00 +9°C° 0.8 mm 2 mps 725 mmHg 94%
22:00 +9°C° 0.8 mm 2 mps 725 mmHg 95%
23:00 +8°C° 0.3 mm 2 mps 725 mmHg 94%
Show more